ECMWFFLT1_700_rhum_318.txt.gz
RH
15 16 18 19 21 24 26 29 30 32 33 34 36 38 39 41 42 43 44 45 48 51 55 59 63 68 72 78 84 89 92 91 90 90 90 92 95 97 100 100 100 98 93 94 98 100 100 100 100 100 100 100 100 100 100 100 100 100 100 100 100 100 100
17 18 19 21 24 26 28 29 30 30 30 31 34 38 42 45 48 50 51 52 53 55 57 60 63 67 71 75 79 83 87 89 90 90 91 93 95 97 99 100 100 100 98 98 100 100 100 100 100 100 100 100 100 100 100 100 100 100 100 100 100 100 100
20 22 23 26 29 30 31 31 30 30 29 29 32 36 42 49 53 56 58 59 60 59 60 61 63 66 68 71 75 79 83 85 87 89 91 94 97 99 100 100 100 100 99 99 100 100 100 100 100 100 100 100 100 100 100 100 101 100 100 100 100 100 100
24 27 29 32 34 34 34 33 32 32 31 30 30 33 39 46 52 57 59 62 63 63 63 64 65 68 70 72 75 79 83 85 87 90 92 95 98 100 100 100 100 100 100 100 100 100 100 100 100 100 100 100 100 100 100 100 100 100 100 101 100 100 99
28 31 33 34 35 35 34 33 31 30 29 29 29 30 34 39 45 51 55 59 61 62 64 65 68 70 73 76 78 81 85 88 90 92 93 96 98 99 100 100 100 100 99 100 100 100 100 100 100 100 100 101 100 100 100 100 100 100 100 100 100 100 98
29 30 31 30 29 29 28 27 26 25 25 25 25 26 29 32 37 43 49 54 57 59 61 64 67 70 74 78 81 85 87 90 93 95 96 99 100 101 101 100 100 100 100 100 100 100 100 100 100 100 100 100 100 100 100 100 100 100 100 100 100 100 99
26 26 25 25 25 24 24 24 24 24 24 24 24 24 25 27 30 34 39 45 51 55 59 61 65 69 73 76 80 84 88 90 93 96 99 101 100 101 101 101 100 100 100 100 100 100 100 100 100 100 100 100 100 100 100 100 100 100 100 100 100 100 100
24 25 24 25 25 25 25 25 25 26 25 26 25 25 25 25 26 27 29 34 39 45 51 56 61 66 69 72 75 78 82 86 90 94 98 101 101 100 101 101 101 101 101 101 101 100 100 100 100 100 100 100 100 100 100 100 100 100 100 100 100 100 100
25 25 26 26 26 27 27 27 27 27 27 27 27 26 26 26 26 26 26 27 29 32 37 41 47 53 57 61 65 68 72 76 81 86 91 97 100 101 100 100 100 100 101 101 101 101 101 101 101 100 100 100 100 100 100 100 100 100 100 100 100 100 100
27 27 27 27 28 28 28 28 27 27 26 26 26 25 25 25 25 25 26 26 27 28 29 30 32 35 39 43 47 51 55 59 65 71 77 84 92 97 100 101 101 101 100 100 100 101 101 101 101 100 100 100 100 100 100 100 100 100 100 101 100 100 100
28 28 28 27 27 26 26 26 26 25 24 23 23 22 21 21 21 21 21 22 23 24 26 27 28 29 30 32 33 35 38 41 45 49 54 61 69 79 87 94 99 101 101 101 100 100 100 100 100 100 100 100 100 101 101 101 101 100 100 101 101 100 99
27 26 25 24 23 23 23 23 22 21 20 19 19 18 17 17 16 16 16 17 18 19 20 21 24 25 27 28 29 30 31 31 33 35 37 40 44 51 59 69 79 88 95 99 100 101 101 101 100 100 100 100 101 101 101 101 101 101 100 100 100 100 99
23 22 22 21 20 20 19 19 19 18 18 17 16 16 15 15 14 14 14 14 15 16 16 16 17 19 21 23 24 26 27 28 29 30 31 32 33 34 37 42 49 57 68 78 87 93 97 99 101 100 100 101 101 101 102 102 101 100 98 98 97 97 97
22 22 21 20 19 18 18 18 18 17 16 16 16 15 15 14 14 14 14 14 14 14 14 15 15 15 16 17 18 19 20 21 23 24 25 26 28 29 31 31 33 36 40 46 55 65 75 84 90 94 96 99 99 100 101 101 100 99 97 95 94 92 92
22 21 21 20 19 18 17 17 18 17 17 16 16 15 15 14 14 14 13 13 13 13 13 13 14 13 14 15 15 16 16 17 17 18 19 20 21 23 25 26 28 29 30 31 33 37 44 52 61 70 78 84 89 93 95 95 95 94 93 92 91 90 89
21 20 19 19 19 18 18 18 18 18 17 16 16 15 14 14 13 13 13 13 12 13 13 13 13 12 13 13 13 14 14 14 14 14 15 16 17 18 19 21 23 24 25 26 27 27 29 31 35 41 48 55 63 70 77 81 84 87 87 87 86 84 85
19 19 19 19 19 19 18 18 18 18 17 16 16 15 14 14 13 13 13 12 13 13 13 13 13 13 12 13 13 14 13 13 12 13 13 14 15 16 17 18 21 21 20 21 22 22 24 24 26 28 30 34 37 42 48 53 60 66 70 73 75 75 75
19 19 19 19 19 20 19 19 19 18 17 16 15 15 14 14 13 13 13 13 13 14 15 15 16 16 15 15 15 16 16 15 14 13 13 13 13 14 15 18 19 19 19 20 20 20 21 21 22 23 24 25 27 28 30 32 36 41 45 49 54 57 58
21 21 21 21 21 21 20 20 19 18 17 16 16 16 15 15 14 14 14 14 14 15 16 18 20 22 21 20 20 21 21 20 19 18 17 16 15 14 16 19 20 18 18 19 19 20 21 21 21 22 23 24 25 26 26 26 27 29 30 32 34 36 38
23 23 22 23 23 23 22 21 20 19 18 17 17 17 16 16 16 15 15 15 16 16 19 23 27 29 29 28 27 27 28 29 28 27 26 24 22 21 23 25 25 23 22 22 21 22 22 22 23 24 25 27 28 29 29 28 26 26 26 27 26 26 28
26 25 25 25 25 25 24 22 21 20 19 18 18 18 18 19 18 18 18 17 18 19 22 26 31 34 35 34 33 34 35 37 38 37 35 34 33 33 34 34 32 31 30 29 28 27 26 25 26 27 29 30 32 34 35 33 30 28 27 26 25 25 25
28 28 27 27 27 26 25 23 22 20 19 19 18 19 20 21 21 22 21 20 20 21 23 25 28 30 32 34 35 37 40 42 44 45 44 44 44 43 43 43 43 42 42 40 38 37 35 35 35 36 36 36 36 38 39 38 35 32 30 28 27 27 26
31 30 30 29 28 27 25 23 22 21 21 21 21 22 23 25 25 25 24 22 22 22 21 21 20 21 23 26 30 34 39 44 48 52 53 53 53 52 52 52 52 53 54 53 51 49 47 48 48 47 46 46 45 42 41 39 37 37 36 34 33 33 31
33 32 31 31 30 28 25 23 22 23 24 25 25 26 28 29 29 28 26 24 22 20 18 17 15 15 17 21 27 34 41 49 56 61 63 63 63 62 61 60 59 60 61 61 60 59 58 59 60 59 58 58 57 53 49 46 46 46 46 44 42 41 39
35 34 33 32 30 28 25 24 23 26 30 32 32 32 33 33 32 29 26 23 20 18 16 16 17 19 23 28 34 41 49 57 65 69 71 71 71 70 69 67 66 65 64 62 63 64 63 64 68 70 70 69 69 66 65 65 64 62 59 56 53 51 48
36 35 33 31 29 26 25 24 25 30 36 39 38 38 38 36 32 29 26 22 20 20 20 21 25 32 39 45 51 56 61 67 73 77 78 79 79 77 76 74 72 69 66 64 64 66 66 68 71 73 74 77 78 77 79 80 78 76 73 69 64 59 55
36 34 32 29 27 25 25 24 27 35 42 44 43 42 40 37 33 29 28 27 27 28 29 32 38 47 55 61 66 71 74 76 79 82 84 85 85 84 82 80 77 74 72 70 71 73 75 78 79 78 78 81 83 84 86 87 84 81 79 76 71 65 61
35 33 30 28 26 26 25 24 30 41 47 47 45 44 40 36 32 31 32 35 38 39 40 44 52 60 67 72 76 79 81 82 82 84 86 88 89 89 87 86 83 81 80 81 82 82 84 88 90 88 87 87 88 89 92 93 88 84 81 78 73 69 65
35 32 30 28 27 26 25 25 32 45 52 51 48 45 39 33 32 35 42 46 47 46 48 53 61 68 74 78 80 81 82 82 82 83 84 86 87 87 87 87 86 85 86 88 89 89 91 94 96 96 95 93 92 94 96 95 90 85 81 77 72 68 64
33 31 29 28 27 27 28 28 33 45 55 56 52 44 35 31 34 41 50 56 56 53 54 59 67 73 78 81 81 80 83 86 87 87 88 88 87 86 85 84 84 86 88 89 89 89 91 93 96 98 99 98 96 95 93 89 85 80 75 71 66 62 57
31 30 30 30 28 28 30 32 38 48 56 56 50 42 35 33 39 47 55 60 60 58 59 66 72 74 77 79 79 79 82 85 86 86 86 87 87 87 87 85 85 87 88 87 86 85 86 89 91 93 94 93 90 86 81 76 73 69 63 59 55 51 48
30 30 31 34 35 33 34 39 48 56 59 54 45 38 35 36 42 50 58 62 61 60 63 69 72 72 72 73 74 75 78 80 79 80 81 80 82 84 86 86 86 86 85 83 83 83 83 83 83 82 80 78 74 69 65 60 57 54 51 47 45 43 41
31 33 33 36 41 44 45 51 58 60 57 48 39 34 34 35 39 46 54 60 61 61 64 67 66 65 65 65 65 67 68 68 69 70 70 71 72 73 75 77 77 76 75 74 74 74 73 70 68 65 62 60 58 55 53 51 49 47 45 42 40 38 36
33 40 43 42 47 56 64 68 68 61 49 39 33 32 34 33 34 38 46 52 55 55 56 57 56 53 53 53 52 53 53 53 54 55 54 55 56 57 58 59 59 59 58 58 58 57 55 53 52 51 49 49 49 50 49 49 48 46 42 39 36 33 30
29 43 56 59 61 69 79 80 70 55 40 32 31 35 37 35 34 37 42 46 46 45 46 47 47 46 47 48 48 49 49 48 48 47 46 45 45 45 45 45 45 45 44 44 44 44 44 44 44 46 47 48 49 49 48 46 43 40 36 33 31 28 26
24 36 55 71 79 83 84 78 64 46 34 32 36 42 44 42 41 42 43 44 44 43 44 45 46 47 49 51 53 53 52 50 47 45 43 41 40 39 39 39 40 40 40 39 40 41 42 44 45 47 49 48 46 44 41 38 35 33 31 30 29 28 27

ECMWFFLT1_700_rhum_324.txt.gz
RH
5 4 4 4 5 5 5 6 6 6 6 6 7 6 7 7 7 8 8 8 8 8 9 9 9 9 9 10 10 11 11 11 12 13 14 15 15 16 17 17 17 16 12 12 17 20 21 25 30 33 39 43 44 47 52 57 62 66 69 71 73 74 75
5 5 4 5 5 6 6 7 7 7 7 8 8 8 8 9 9 9 9 9 9 9 9 9 10 10 10 11 11 12 12 12 13 14 15 17 18 18 19 20 19 19 17 14 16 20 22 27 34 37 41 47 49 50 53 57 64 71 74 76 77 78 79
5 5 5 6 7 7 8 8 8 9 9 9 10 10 10 10 10 10 10 10 10 10 10 10 11 11 11 12 12 12 13 13 14 15 16 17 19 19 20 21 21 21 20 18 17 20 22 27 34 39 45 51 54 55 56 58 64 71 77 80 82 83 85
6 6 7 7 8 8 9 10 10 10 10 11 11 11 11 10 10 10 10 10 11 11 11 12 12 12 12 12 13 13 13 14 14 15 15 16 18 19 20 21 23 23 23 22 20 21 23 26 31 39 47 54 57 59 62 63 65 71 78 83 85 86 90
7 7 8 8 9 10 11 11 11 12 12 12 12 11 11 10 10 11 11 12 12 12 13 13 13 13 13 13 13 13 13 13 14 14 14 15 16 17 18 20 22 23 23 24 23 22 23 25 29 35 45 56 60 60 65 70 73 76 80 86 90 90 92
8 8 9 10 11 12 12 13 13 13 13 13 12 12 11 11 12 12 13 13 13 13 13 14 14 14 14 14 14 14 14 13 14 13 13 14 14 14 16 17 18 20 21 22 23 24 24 24 27 30 37 51 60 61 65 71 78 84 86 88 94 96 95
9 10 10 11 12 13 14 14 14 14 14 13 13 12 12 13 13 13 13 14 14 14 15 15 15 15 15 15 15 15 15 14 14 14 13 14 14 14 14 14 15 16 16 18 19 21 23 24 26 26 28 37 49 59 66 70 76 84 90 90 92 96 98
10 11 12 13 13 14 15 15 16 15 14 13 13 13 13 14 14 14 14 15 15 16 16 16 16 16 16 16 16 16 15 15 15 15 14 14 14 14 13 13 13 13 13 14 15 16 18 20 23 25 26 28 33 43 56 67 74 82 92 95 93 94 97
12 13 13 14 15 16 17 17 16 15 14 14 14 14 15 15 15 16 16 17 17 17 18 18 18 18 17 17 17 17 16 16 16 15 15 15 15 15 14 14 14 13 13 13 13 14 14 16 17 20 24 26 28 31 37 50 63 74 85 95 97 96 97
13 14 14 16 17 18 18 16 16 15 15 15 15 16 17 17 18 18 18 19 19 19 19 19 19 19 19 18 18 18 17 17 17 16 16 16 16 15 15 15 14 14 13 13 13 13 13 14 14 16 18 21 25 28 29 33 43 54 67 81 92 97 99
15 15 16 17 18 18 17 16 16 16 16 17 18 19 19 19 20 20 19 19 19 19 19 20 20 20 20 20 19 19 19 18 18 18 17 17 17 16 16 15 15 14 13 13 13 13 13 14 14 15 16 17 19 23 27 29 31 36 45 56 69 83 95
17 18 18 18 18 18 17 18 18 19 20 20 21 21 20 19 19 18 18 18 18 18 18 19 19 19 20 21 21 21 20 20 20 19 19 18 18 17 17 16 15 15 14 13 13 13 13 13 14 14 15 16 17 18 21 25 28 30 33 38 45 57 72
19 19 19 19 18 19 19 20 21 22 22 22 21 20 19 18 18 17 17 18 18 18 18 18 19 20 20 21 22 22 22 22 21 21 20 20 19 18 18 16 15 15 14 13 13 13 12 13 13 13 14 15 17 16 16 19 23 27 30 32 35 38 46
21 20 20 20 20 21 22 23 24 23 22 21 20 20 19 18 19 18 18 19 19 19 20 21 21 21 21 22 22 23 24 24 24 23 22 22 21 19 18 17 16 15 15 14 13 13 13 13 13 13 13 14 15 15 16 16 18 21 25 28 31 32 34
21 21 21 22 23 24 24 24 23 21 20 20 20 20 19 19 19 19 19 19 20 21 22 23 23 23 23 23 24 25 25 25 25 25 24 23 22 21 19 18 18 17 16 16 15 15 14 14 14 15 14 15 15 15 15 15 16 18 20 22 25 27 30
22 22 23 24 25 24 23 23 22 21 21 21 21 21 20 19 19 18 19 20 22 23 24 24 24 24 25 25 26 27 27 27 27 26 25 24 23 22 21 20 21 21 20 19 19 18 17 16 17 17 17 17 17 16 15 15 16 18 18 19 20 21 24
24 25 25 26 25 23 23 23 23 23 23 22 22 22 20 20 19 19 20 21 23 24 24 25 26 27 28 29 29 29 29 29 28 27 26 25 24 23 22 22 24 26 25 24 23 22 22 21 21 21 22 22 21 19 17 16 16 18 18 18 17 18 20
26 27 26 26 25 24 24 24 25 25 25 24 24 22 20 20 19 19 20 21 22 24 25 26 27 29 30 31 31 31 30 29 29 28 27 26 25 24 24 24 27 29 29 29 28 27 27 28 27 27 26 28 28 25 22 20 19 20 20 19 18 17 18
27 27 27 26 25 25 25 25 26 27 26 25 24 22 21 20 19 19 20 20 22 23 25 27 29 30 32 32 32 32 31 30 29 28 27 27 26 26 26 27 29 30 31 31 31 30 31 32 33 34 34 34 34 33 30 26 24 24 24 23 22 20 19
28 27 27 26 26 26 27 27 27 27 26 25 24 23 21 20 19 20 20 21 23 24 25 28 31 32 33 33 33 32 31 29 28 27 28 29 29 29 29 29 30 29 30 30 30 29 31 33 36 39 41 41 40 39 38 35 32 31 30 29 28 28 26
28 27 27 27 28 28 30 29 28 27 26 25 25 24 22 21 21 21 22 22 24 25 27 29 32 33 34 33 32 31 30 28 28 28 29 31 32 33 32 31 30 29 28 27 27 27 28 30 34 40 44 45 45 45 45 43 41 39 38 38 37 36 35
28 28 27 28 29 30 31 30 28 27 27 27 26 24 22 21 22 23 25 25 25 27 29 31 33 34 34 33 32 30 29 29 30 32 34 36 37 36 35 32 30 28 26 25 25 25 26 28 33 39 43 46 48 50 49 48 47 47 45 44 43 42 42
29 28 27 28 30 31 30 29 28 28 28 27 26 24 23 24 25 26 28 28 29 31 33 34 34 34 33 32 30 29 29 30 32 36 40 42 41 38 35 33 30 28 27 26 25 25 27 32 39 44 47 50 52 52 52 51 52 53 51 49 47 46 46
30 29 28 28 28 28 28 28 28 27 28 27 25 24 25 26 27 29 32 33 34 35 36 35 34 33 32 30 29 29 30 32 37 43 46 45 42 39 35 32 31 31 31 31 31 33 36 42 50 53 53 55 56 56 57 58 58 58 56 56 55 54 52
31 30 29 28 26 26 26 27 26 26 27 27 26 25 27 28 30 32 35 37 37 37 36 35 34 32 30 28 28 28 30 36 45 50 50 46 42 37 35 35 36 38 40 40 42 47 50 56 63 64 62 62 63 65 68 69 68 66 65 65 64 63 62
32 31 30 28 26 25 24 24 25 25 26 27 27 28 31 32 34 36 38 39 38 38 36 34 32 30 28 26 27 30 36 45 53 55 50 45 40 37 39 42 45 47 49 52 56 61 64 68 74 76 75 75 76 77 80 81 79 77 77 77 74 71 71
32 32 30 27 25 25 23 23 24 26 27 28 29 31 34 36 38 40 41 41 40 38 35 33 30 28 26 27 31 39 49 57 58 54 48 43 42 43 47 52 55 56 57 61 66 69 72 76 82 84 85 86 85 86 89 89 84 82 85 86 83 79 79
32 32 31 27 25 25 24 23 26 29 29 28 29 31 33 37 41 43 43 42 39 36 33 31 28 26 28 32 39 49 61 64 58 50 44 42 46 52 58 62 63 64 66 69 71 72 74 78 82 84 86 87 87 88 93 92 87 85 88 90 87 85 86
32 31 31 29 28 29 27 24 26 30 29 28 30 32 34 37 41 43 42 39 35 32 30 28 27 29 36 46 55 63 66 62 52 45 42 45 51 59 65 69 71 71 73 75 74 72 74 77 79 81 84 85 86 88 91 90 87 86 87 87 87 87 89
32 31 32 32 31 32 31 28 27 29 30 31 33 34 36 38 39 40 37 33 30 28 26 26 27 32 44 60 72 73 65 53 43 38 40 48 56 62 67 72 75 76 77 76 75 74 75 76 77 78 81 83 84 86 88 88 85 84 84 84 85 85 88
33 33 35 35 33 33 32 31 30 31 32 33 34 34 35 36 36 35 33 32 32 29 28 32 36 39 50 68 77 69 54 42 36 34 38 46 56 63 68 72 75 76 75 73 72 74 74 74 73 74 76 79 80 83 85 86 85 83 83 83 83 83 85
32 33 35 36 35 34 33 33 33 33 33 33 33 33 33 34 35 35 36 39 41 39 39 46 50 51 60 73 71 56 43 38 38 39 41 45 50 58 66 71 73 72 69 67 67 66 65 64 65 66 69 72 75 77 81 83 84 83 82 82 82 82 84
31 33 33 33 35 36 36 36 34 32 32 32 32 33 35 36 38 41 45 50 53 54 55 59 61 64 70 70 59 46 41 44 46 48 49 48 48 52 59 64 65 64 62 60 59 57 55 54 54 55 56 59 62 66 70 73 77 79 79 79 80 80 82
29 32 33 33 34 36 36 35 33 32 33 33 34 36 39 41 44 50 57 61 63 63 63 65 69 73 71 61 49 44 46 48 48 50 52 52 51 51 53 56 57 56 55 55 54 52 50 50 50 49 49 49 49 52 55 58 62 66 68 70 72 73 75
27 30 32 32 32 33 34 34 34 34 35 36 38 42 47 51 56 60 64 67 69 69 70 73 75 71 60 48 44 45 44 42 41 43 47 50 52 51 50 51 52 52 53 54 54 52 51 51 50 49 48 46 45 44 44 46 48 51 53 55 57 59 61
26 28 29 29 30 32 34 35 36 37 38 41 46 53 59 63 66 68 68 68 70 75 79 78 70 58 47 43 43 41 37 35 35 36 39 44 48 51 51 51 52 54 56 57 56 55 53 51 48 47 45 42 40 40 40 40 41 42 42 44 45 47 48

ECMWFFLT1_700_rhum_330.txt.gz
RH
80 82 84 85 86 86 85 83 78 68 52 32 17 9 7 6 5 5 5 5 6 6 6 6 6 7 7 7 7 8 8 8 9 9 9 9 9 10 10 10 10 9 9 9 9 9 9 10 10 10 10 10 10 10 9 9 9 9 9 9 8 8 8
86 87 88 89 89 87 85 81 73 60 44 27 14 8 7 6 6 6 6 6 7 7 7 7 8 8 8 8 8 9 9 9 10 10 10 11 11 11 11 10 10 9 9 10 10 11 11 11 11 11 11 11 10 10 10 10 10 9 10 10 10 10 9
90 90 90 90 89 86 82 75 64 50 37 24 14 9 7 7 7 7 7 7 7 8 8 8 9 9 9 10 10 10 11 11 11 12 12 11 11 10 10 10 10 10 11 12 12 12 12 12 12 11 11 11 10 10 10 10 10 9 10 10 10 10 10
94 93 92 91 87 83 76 66 55 43 31 21 13 9 8 8 8 8 8 9 9 9 9 9 10 10 10 11 11 12 12 12 13 12 11 11 10 10 10 11 12 12 13 14 13 13 12 11 11 11 10 10 10 10 9 9 9 9 9 10 10 10 10
96 94 92 88 83 76 67 56 46 36 26 18 12 10 9 9 9 9 9 10 10 10 11 11 11 12 12 13 13 14 14 13 12 11 10 11 11 11 12 13 14 14 14 14 13 13 12 11 11 10 10 10 9 9 9 9 9 9 9 9 9 10 10
96 93 88 82 76 69 59 49 40 31 22 17 13 11 11 11 11 11 11 11 12 12 12 12 13 13 14 15 15 15 13 12 11 11 11 12 13 13 14 14 15 14 14 13 13 12 12 11 10 10 10 9 9 9 9 9 8 8 9 9 9 10 11
93 88 83 77 69 61 51 42 33 25 19 15 13 12 12 12 12 13 13 13 13 13 14 14 15 15 16 16 15 13 12 11 12 12 13 14 14 15 15 15 15 14 14 13 13 13 12 11 11 10 10 9 9 9 9 9 9 8 9 10 10 10 12
89 82 75 68 60 50 42 34 27 21 17 15 14 13 14 14 14 14 15 15 15 15 16 16 17 17 16 15 13 13 13 13 14 14 15 15 16 16 16 16 16 15 15 15 14 14 13 12 11 10 10 10 9 9 9 9 9 9 9 11 11 12 14
81 73 64 56 47 40 34 28 23 19 17 15 15 16 16 16 16 16 16 16 17 17 18 18 18 17 16 15 14 14 15 15 15 16 16 17 17 17 17 17 17 16 16 15 15 14 13 12 11 10 9 9 9 9 10 10 10 11 11 13 14 15 18
69 60 52 44 38 33 29 25 22 19 18 17 17 17 18 18 18 18 18 18 18 19 20 20 18 17 16 16 16 16 16 17 17 17 18 18 18 19 18 18 17 16 15 14 13 13 12 11 10 10 9 9 10 10 11 11 12 13 14 16 17 17 19
57 50 44 39 35 31 28 25 22 21 19 19 19 19 20 20 19 19 19 20 20 21 21 20 18 18 18 18 18 18 18 19 19 20 21 21 20 20 19 17 16 15 13 12 12 11 11 10 9 10 10 10 11 12 13 14 15 16 18 19 20 20 21
51 46 41 37 34 30 27 25 24 23 22 21 21 21 21 21 21 20 21 22 22 23 22 21 20 20 20 20 20 20 21 22 23 23 23 22 21 19 17 15 14 13 12 11 11 10 10 10 10 10 11 12 14 16 17 18 19 21 22 22 23 23 23
49 45 41 37 34 31 29 27 26 25 24 24 24 23 22 22 22 22 23 24 24 24 23 22 22 22 22 23 23 24 25 25 24 24 22 20 18 16 15 13 12 12 11 10 11 10 10 11 12 12 14 17 20 21 22 23 24 25 25 26 26 26 26
48 44 41 38 36 34 31 30 28 27 27 27 25 25 24 23 24 25 26 27 26 25 25 24 24 25 25 26 26 26 26 24 22 21 18 17 15 13 13 12 11 11 11 11 12 11 10 12 14 16 18 22 25 26 26 27 27 27 28 28 28 27 27
48 45 42 40 37 35 32 30 30 29 29 28 27 26 26 26 27 28 28 28 27 27 27 27 27 27 27 27 26 24 23 21 19 17 15 14 13 12 12 11 11 12 13 13 13 12 12 14 18 22 24 27 29 29 29 29 28 29 29 29 28 28 27
48 45 42 39 36 34 32 31 31 31 30 29 28 27 28 28 29 30 30 29 29 29 29 30 29 29 27 25 24 22 20 18 16 15 14 13 12 11 11 11 12 13 14 15 15 15 18 21 24 27 28 29 31 30 29 30 29 29 30 29 29 28 27
47 44 41 39 36 35 34 32 32 32 31 30 29 29 30 30 31 31 31 31 31 32 32 31 29 27 26 23 21 19 17 15 14 13 12 12 11 12 12 12 15 15 16 18 20 22 24 26 28 30 30 31 31 31 31 31 29 30 31 30 29 28 28
46 44 41 39 37 36 35 34 34 33 32 31 31 31 32 32 33 33 33 34 34 34 32 30 28 25 23 21 19 17 15 14 13 12 12 12 12 12 13 16 18 18 19 23 26 28 29 29 29 30 30 31 32 32 33 33 32 31 32 31 30 28 28
45 44 42 39 37 36 36 36 35 34 33 33 33 33 34 34 35 35 36 36 35 33 30 28 25 23 20 18 16 14 14 13 13 13 13 14 14 14 16 19 20 21 23 26 29 30 31 31 30 29 29 30 33 35 36 36 35 34 33 32 30 29 29
46 44 41 39 38 38 38 37 36 35 34 35 35 36 36 37 38 39 39 37 34 31 28 25 22 19 17 15 14 14 14 14 15 15 15 16 16 16 18 21 21 23 26 28 29 31 32 30 29 29 29 31 35 39 41 40 38 36 34 32 29 30 31
46 44 42 41 41 40 39 38 37 36 37 38 38 39 40 41 41 39 37 34 30 27 24 21 18 16 15 14 14 14 15 16 17 17 17 17 18 18 19 21 22 23 26 28 29 30 30 29 28 29 33 37 41 44 44 42 40 37 36 36 34 33 32
45 45 45 44 43 42 40 39 38 39 41 41 42 43 43 42 40 36 32 29 26 22 20 17 15 15 15 15 15 15 16 17 18 18 18 18 18 18 19 20 21 22 23 24 26 27 28 28 27 30 38 45 48 47 45 43 41 39 40 42 41 40 36
49 49 48 46 44 42 40 41 42 43 45 45 45 45 43 39 35 31 27 25 22 19 17 15 15 15 15 15 16 17 17 18 18 17 17 18 19 20 21 21 22 22 23 23 23 24 24 26 29 34 43 49 50 48 44 43 43 43 44 45 48 50 47
52 50 48 46 44 43 43 45 47 48 48 48 46 43 38 34 30 27 23 20 18 16 15 15 15 15 16 17 17 18 18 17 17 17 18 20 22 23 24 25 26 26 26 26 24 23 23 25 32 41 47 50 49 45 42 44 46 49 51 53 55 59 60
53 50 47 45 45 46 48 49 50 50 49 46 42 37 33 30 26 23 20 18 16 16 15 15 15 15 16 16 17 17 17 16 17 19 21 23 26 27 29 31 32 32 31 30 28 27 27 30 38 47 51 49 46 42 42 46 51 54 59 62 63 65 69
50 47 46 46 48 51 52 53 51 49 44 41 37 33 29 26 23 20 18 16 16 16 15 15 15 15 15 16 17 18 18 18 20 22 24 27 31 34 37 39 39 38 36 34 33 33 33 37 44 50 49 43 39 39 45 51 55 60 66 70 70 70 74
49 48 49 51 53 54 54 52 48 43 39 36 33 29 25 22 19 17 17 16 15 16 15 15 15 15 16 17 19 20 20 21 23 26 30 35 40 43 46 45 43 40 39 38 39 38 38 43 48 48 43 36 33 38 47 54 58 64 72 76 75 74 78
51 53 55 56 56 55 52 47 42 38 35 31 27 24 21 18 17 16 16 15 15 15 15 14 15 15 17 18 20 22 24 27 30 35 40 45 49 50 50 47 43 42 42 42 43 43 44 47 48 43 36 33 34 39 47 55 61 68 75 80 79 77 79
57 60 60 58 55 51 47 42 38 34 31 27 23 20 18 16 16 16 16 15 16 15 14 14 15 15 17 19 21 23 28 34 40 45 50 53 55 54 51 45 42 43 46 48 48 48 48 46 42 37 35 36 38 41 47 53 60 67 74 78 79 78 79
62 62 58 55 51 46 43 39 35 30 26 23 20 18 17 17 17 17 16 16 16 15 14 15 15 16 18 21 24 28 35 43 49 52 55 57 58 57 53 48 44 45 50 53 51 47 44 39 36 35 38 40 41 44 47 51 57 63 67 71 72 74 75
62 58 54 50 47 44 40 35 29 24 21 19 18 18 19 19 18 17 17 16 16 16 15 16 18 19 21 25 30 37 43 48 50 52 55 57 59 58 56 53 52 53 53 50 44 39 35 32 32 33 36 40 43 44 45 47 51 56 58 60 62 62 64
58 54 50 46 43 38 33 27 22 20 19 18 19 20 20 19 18 16 16 17 17 17 18 19 20 22 26 32 39 42 43 42 43 48 54 58 60 61 60 60 61 58 49 40 34 31 29 28 28 29 31 36 41 44 45 45 46 48 49 50 50 50 51
54 49 44 40 34 28 24 21 19 19 19 19 20 21 20 19 17 15 16 18 19 19 20 21 23 27 33 39 40 36 31 31 37 46 54 59 61 64 65 63 57 48 38 32 31 30 28 26 27 27 28 32 38 44 46 44 45 46 47 46 46 46 47
48 42 35 30 25 21 20 20 20 20 21 20 20 20 19 17 15 15 17 20 20 21 23 26 29 34 38 37 30 23 21 27 37 48 56 60 62 63 60 53 43 36 33 33 32 31 28 27 27 27 26 29 35 41 45 45 46 48 49 49 50 50 48
41 34 27 22 21 20 21 21 21 20 20 19 19 19 18 16 15 15 18 20 23 27 31 35 37 36 31 24 18 16 19 26 34 44 50 53 53 51 44 38 34 33 34 34 33 32 31 28 27 27 27 27 30 35 41 45 47 49 51 52 53 52 49
34 26 21 20 21 23 23 22 20 19 19 18 18 18 17 16 16 18 20 23 28 35 42 43 38 29 20 16 16 19 21 24 27 33 36 37 37 35 32 32 34 35 34 34 33 33 33 31 28 27 27 27 27 30 35 41 44 47 50 52 52 49 45

ECMWFFLT1_700_rhum_336.txt.gz
RH
51 50 47 44 39 35 39 48 55 60 65 70 76 79 79 79 79 78 77 77 77 76 80 84 86 86 81 71 59 46 32 21 15 11 8 8 8 8 8 8 9 9 9 11 11 11 12 12 12 12 12 12 12 13 13 14 15 15 15 15 16 16 15
52 51 49 47 43 39 42 50 58 63 69 77 83 84 84 84 82 80 80 80 80 82 86 88 86 83 76 65 55 41 28 19 14 11 9 9 9 9 9 9 10 10 10 11 12 12 12 13 13 13 13 14 14 15 15 16 16 17 17 17 17 17 16
55 51 49 46 43 40 43 51 58 65 74 83 88 90 89 86 84 84 84 85 86 87 88 86 80 73 65 56 46 33 22 17 14 12 11 10 10 10 11 11 11 12 12 12 13 14 14 14 14 15 15 15 16 16 17 17 18 18 18 18 17 17 16
59 53 48 45 41 39 41 48 58 69 81 91 95 93 89 86 87 88 88 89 90 89 86 79 68 59 53 46 37 27 21 18 15 13 12 12 12 12 12 13 13 13 13 14 14 15 15 16 16 16 16 17 18 18 19 19 20 19 19 19 18 17 16
65 59 52 47 42 38 41 49 60 75 89 97 96 91 89 90 91 92 92 93 92 87 79 69 60 54 48 39 30 23 19 16 15 14 13 13 13 14 14 14 15 15 15 16 16 17 17 17 18 18 19 20 20 21 21 21 21 21 19 19 18 17 16
73 67 60 54 47 44 46 53 67 83 95 97 93 91 93 94 94 95 96 94 88 80 72 64 56 49 39 31 25 21 18 15 15 15 15 15 15 16 16 16 17 17 17 18 18 18 19 19 20 21 21 23 23 23 23 22 21 20 19 18 17 16 15
80 73 67 60 55 52 53 61 77 91 96 95 94 95 96 96 97 99 96 89 81 73 63 53 46 38 31 27 23 20 18 17 17 17 17 17 17 17 18 18 19 19 19 20 20 21 22 22 23 24 25 25 26 25 24 22 20 19 18 17 16 14 13
86 77 70 65 60 58 61 72 85 92 94 95 96 97 97 98 100 97 90 81 70 59 49 42 38 35 31 27 22 21 21 20 20 20 19 19 19 19 20 20 21 21 22 22 23 24 25 26 26 27 28 27 26 25 23 22 20 18 17 15 14 13 12
90 80 72 66 63 65 72 83 90 91 93 96 97 97 100 100 97 89 78 68 59 52 48 45 42 37 31 27 26 26 26 24 23 22 21 21 21 21 22 23 23 23 24 25 26 27 28 29 29 29 28 27 25 24 22 20 19 17 15 14 13 12 11
94 83 73 69 70 76 83 88 89 91 95 97 99 100 101 97 89 78 69 63 60 58 54 49 43 38 36 35 35 33 30 28 25 23 23 23 23 23 24 24 25 26 27 28 29 30 30 30 30 28 27 25 23 22 20 18 17 15 14 12 11 10 9
97 87 79 79 81 84 87 89 90 94 97 99 101 100 95 89 80 73 70 67 64 59 53 49 46 45 44 41 38 34 30 28 25 24 24 24 25 25 26 27 28 29 30 31 32 32 31 30 28 26 25 23 22 20 18 16 15 13 12 11 9 8 7
99 92 87 87 88 88 91 94 96 98 100 100 99 94 88 82 77 73 70 65 61 57 55 53 51 48 44 39 34 31 28 27 26 25 26 26 27 28 28 30 31 32 34 34 33 32 30 28 26 24 23 21 19 18 16 14 13 11 10 9 7 7 6
99 96 92 91 91 93 96 98 99 101 100 98 93 88 82 78 73 70 67 63 62 60 58 55 50 44 38 34 31 29 28 27 27 27 28 28 29 30 32 34 36 36 36 34 32 30 28 27 25 22 21 19 17 15 13 11 10 9 8 7 7 7 7
99 98 95 93 94 97 99 100 100 100 96 91 87 82 78 75 72 69 67 65 63 60 55 49 42 36 33 31 30 29 28 28 28 28 29 30 32 35 37 38 38 37 35 33 31 28 26 24 22 20 18 15 13 12 10 9 8 8 7 7 7 7 7
100 99 97 96 97 100 100 100 99 95 90 86 83 79 76 73 71 69 66 62 57 52 45 39 34 32 31 31 30 30 29 29 30 31 32 34 37 39 40 39 38 35 33 31 29 26 24 21 19 17 14 12 11 10 9 8 8 7 8 8 8 8 9
100 100 100 99 100 101 99 97 93 89 85 82 78 75 72 70 67 64 59 53 47 41 36 33 32 33 32 32 32 31 31 32 33 35 37 39 41 41 40 38 36 33 31 28 26 23 20 18 15 13 11 10 10 9 8 8 8 8 10 10 9 10 12
100 100 100 100 100 99 95 91 87 83 80 76 73 71 67 64 60 55 49 44 39 36 35 34 34 34 34 34 33 33 34 36 38 40 42 43 42 40 39 36 33 30 27 24 22 19 16 14 12 11 10 9 9 9 10 10 9 10 13 14 14 15 15
100 100 101 100 98 93 88 83 80 77 74 71 68 65 60 56 52 47 43 40 37 36 36 36 35 35 35 35 36 38 40 42 44 45 44 43 41 38 35 32 28 25 22 20 17 15 13 12 11 10 10 9 10 11 13 13 13 16 21 22 22 22 19
100 101 99 96 90 85 81 77 74 71 69 66 62 58 55 51 47 44 41 38 37 37 37 36 36 36 37 40 42 45 46 47 47 46 44 41 37 34 30 27 23 21 18 16 14 12 11 11 10 10 9 9 10 12 14 17 19 23 27 26 23 22 19
101 99 94 88 83 79 75 72 69 67 64 61 58 55 51 47 44 42 40 39 38 38 38 37 38 39 41 44 46 48 49 49 47 44 41 36 32 28 25 21 19 17 15 13 12 11 11 10 10 10 10 11 12 14 17 21 25 29 30 27 22 20 19
98 94 89 85 81 77 73 70 68 65 62 58 54 51 48 45 43 42 41 40 40 39 39 40 41 44 46 47 49 50 49 47 43 39 35 30 26 22 19 17 15 14 12 12 11 11 10 10 10 10 11 12 14 17 21 25 28 31 32 30 25 21 19
95 92 89 86 82 77 74 70 66 62 58 55 52 49 48 47 45 44 43 42 41 41 42 44 46 48 50 51 51 49 45 41 36 31 27 23 20 17 16 14 13 12 12 11 11 10 10 10 10 11 12 15 18 23 26 27 29 32 31 28 26 23 20
96 94 90 87 83 77 72 67 63 60 57 55 52 51 50 49 47 46 44 43 43 45 46 49 51 53 54 52 49 44 38 33 28 23 20 18 16 15 14 13 13 12 12 11 11 10 10 10 12 14 16 20 26 29 29 30 33 33 27 23 23 22 20
98 94 90 86 80 75 69 65 62 61 58 57 55 53 52 50 48 47 45 45 47 49 51 54 55 55 52 47 41 36 30 25 21 18 17 16 15 15 14 13 13 12 12 11 10 11 12 12 15 19 22 27 31 31 30 34 38 34 28 24 23 22 22
98 93 89 83 77 73 70 67 66 64 61 59 58 56 54 52 49 49 49 50 52 54 56 57 55 51 45 39 33 27 23 20 18 16 16 15 15 14 13 13 13 12 11 11 12 13 15 16 20 24 27 29 30 28 32 39 41 36 30 27 25 23 24
97 92 87 82 77 74 72 70 68 66 65 65 64 60 56 53 52 53 54 55 57 58 58 55 49 43 37 30 25 21 18 17 16 16 15 15 14 14 13 12 12 12 13 14 15 17 18 21 24 27 27 25 22 25 36 44 42 36 34 33 30 27 26
93 89 86 83 81 78 73 70 70 70 72 72 67 61 57 56 56 57 59 60 60 58 54 48 41 35 28 23 20 18 17 16 16 16 15 15 14 13 13 12 13 15 16 17 19 21 22 24 25 23 19 16 17 26 40 47 42 36 36 35 31 25 23
91 89 87 85 82 78 75 76 78 78 76 72 66 61 59 59 60 61 62 61 58 52 46 40 34 27 21 18 17 17 16 16 16 15 14 14 13 13 13 15 18 19 22 24 27 27 26 23 19 15 12 13 18 29 42 47 41 36 33 30 25 21 20
92 89 85 83 81 80 82 85 84 79 73 68 64 62 62 62 63 63 60 55 49 44 39 33 26 21 18 17 17 16 16 15 15 14 13 12 13 14 16 20 22 24 28 32 32 29 23 17 13 11 13 18 24 34 44 45 38 31 26 23 21 20 19
88 84 83 84 86 87 86 85 81 76 71 67 65 65 65 65 63 59 53 48 42 37 31 25 20 18 17 17 17 16 15 15 14 12 12 12 15 18 20 23 25 27 29 28 24 19 14 12 11 12 16 23 31 38 43 40 32 25 23 23 22 20 19
87 86 87 89 90 88 85 82 78 74 70 69 68 68 66 63 58 52 47 41 35 30 25 19 17 17 17 17 17 15 15 14 12 12 14 16 19 22 24 25 25 25 23 18 14 12 11 12 14 15 18 26 33 35 35 31 26 24 24 24 22 20 19
91 92 92 90 86 84 82 81 76 72 71 70 69 66 62 56 51 46 40 34 27 23 20 18 18 18 17 17 16 15 13 12 12 15 19 22 24 25 26 26 24 19 14 11 10 11 13 14 16 17 19 23 27 27 26 24 24 26 26 24 23 21 20
92 91 88 84 82 80 79 77 74 73 72 70 65 61 55 50 45 39 31 25 21 19 18 18 18 18 17 16 15 13 12 13 16 21 24 26 25 24 23 21 17 13 11 10 11 12 14 15 17 18 19 21 22 23 23 23 24 26 25 24 24 23 21
89 87 84 83 83 81 78 76 75 73 69 64 59 55 49 43 37 30 23 20 19 18 18 18 18 17 16 14 13 13 14 18 21 24 24 23 20 17 14 13 12 11 12 12 12 13 13 15 17 18 19 20 21 22 22 22 23 23 24 24 24 24 23
86 86 85 84 83 81 78 76 73 68 63 58 53 47 40 34 28 22 19 19 20 19 19 18 17 16 14 13 14 18 21 24 24 23 19 16 13 11 10 10 11 12 13 13 14 14 14 14 15 17 18 19 19 19 19 19 19 19 20 20 22 23 24
84 85 85 83 81 79 76 72 67 61 57 52 46 38 30 25 21 18 19 20 20 19 18 17 15 14 14 17 22 26 27 25 21 16 13 11 10 10 10 11 12 13 13 14 14 14 15 15 14 15 16 16 16 16 16 16 16 16 17 17 18 19 21

ECMWFFLT1_700_rhum_342.txt.gz
RH
74 78 83 90 96 99 99 100 97 85 72 65 63 65 66 64 58 46 30 26 36 46 58 77 92 97 96 92 90 89 87 81 77 80 83 83 84 86 85 84 82 78 74 71 65 57 44 33 28 22 17 15 13 12 12 12 13 13 13 13 14 15 15
77 84 94 98 100 100 99 101 99 89 77 70 69 70 73 72 66 55 40 32 37 45 56 76 94 100 99 97 96 94 88 81 80 82 83 83 86 86 84 81 76 71 68 67 63 55 43 33 28 24 21 18 16 15 15 15 15 15 15 16 16 16 17
82 91 98 100 99 100 100 100 100 92 80 75 75 72 71 72 70 61 50 42 40 46 61 80 95 99 99 100 100 95 88 84 84 83 82 85 88 86 82 76 69 63 59 58 56 52 44 36 30 27 24 20 17 17 17 16 17 17 17 17 17 18 18
87 94 100 100 100 100 100 100 101 97 86 79 78 73 66 66 68 65 59 51 45 49 64 79 88 94 97 100 100 95 89 87 85 82 82 87 89 86 81 75 70 64 57 50 46 45 42 37 31 28 25 22 19 19 20 19 19 19 19 19 19 19 20
89 95 99 100 99 100 100 100 100 100 94 85 80 74 67 65 67 67 63 57 55 61 71 80 88 96 100 101 99 93 89 87 84 82 85 89 89 86 81 77 72 66 57 47 42 41 40 35 29 26 25 24 22 21 21 21 21 21 20 20 20 20 21
91 96 99 100 100 100 100 100 100 101 99 91 83 76 70 68 71 73 72 70 73 79 83 88 93 98 101 100 97 92 89 87 84 85 90 92 89 86 82 76 70 63 55 48 42 37 34 31 28 27 26 27 25 24 23 22 22 21 21 21 21 22 22
93 97 99 100 100 100 100 100 100 100 100 97 88 79 75 74 75 77 76 73 73 76 80 85 90 95 99 98 94 91 89 86 86 90 93 92 88 84 77 69 64 61 56 50 43 37 35 34 34 33 32 30 28 25 24 22 21 21 21 21 22 24 25
92 97 100 100 100 100 100 100 100 100 100 100 95 86 79 78 77 74 71 67 68 72 77 83 88 93 95 96 95 92 89 88 91 94 93 89 84 77 71 67 65 62 58 52 48 47 45 41 37 35 32 28 26 24 23 22 22 22 23 23 24 27 28
93 97 100 100 100 100 100 100 100 100 100 100 99 92 84 80 78 75 72 72 73 76 80 84 89 93 96 97 95 92 91 92 95 93 88 84 80 74 71 69 66 63 60 57 54 50 45 38 32 29 27 25 24 23 23 24 24 24 25 26 28 29 30
97 99 100 100 100 100 100 100 100 100 100 100 100 97 90 85 83 80 79 79 80 82 83 86 90 94 97 96 93 92 95 95 93 89 85 82 78 75 72 69 66 63 60 55 49 42 36 31 28 26 25 25 25 25 26 26 27 28 29 29 29 29 28
97 100 100 100 100 100 100 100 100 100 100 100 100 100 96 92 89 87 87 87 88 89 91 93 96 98 99 97 96 96 95 92 88 85 83 80 76 74 71 67 63 58 51 45 38 33 30 28 27 27 27 27 27 28 29 30 31 32 31 30 28 25 23
98 100 100 100 100 100 100 100 100 100 100 100 100 101 100 97 96 96 95 94 94 96 98 99 100 100 100 99 98 96 92 88 86 83 80 78 74 71 66 60 53 46 39 35 31 29 29 28 28 29 30 30 31 31 33 34 34 33 30 27 24 21 19
98 100 100 100 100 100 100 100 100 100 100 100 100 100 100 100 100 100 99 98 99 100 101 100 100 100 100 98 95 92 89 87 85 82 79 75 69 63 56 48 42 37 33 32 30 30 31 31 31 31 33 34 35 35 36 35 33 31 27 24 22 18 16
99 100 100 100 100 100 100 100 100 100 100 100 100 100 100 101 101 100 100 100 100 101 100 100 100 99 98 95 92 90 88 85 81 76 71 65 58 52 46 40 37 34 33 32 32 32 32 33 33 35 36 38 38 38 36 34 30 27 24 21 18 15 14
100 100 100 100 100 100 100 100 100 100 100 100 100 100 100 100 100 100 100 100 100 100 101 100 99 97 95 92 89 85 81 76 72 66 60 55 49 44 41 38 36 35 34 34 34 34 34 36 38 39 40 41 39 37 34 30 27 24 22 19 15 13 12
99 100 100 100 100 100 100 100 100 100 100 100 100 100 100 100 100 100 100 100 100 100 100 99 96 93 90 86 81 77 72 67 62 58 53 48 45 42 40 38 36 35 35 35 35 37 38 40 42 42 42 40 37 34 30 27 24 22 19 16 12 10 9
100 100 100 100 100 100 100 100 100 100 100 100 100 100 100 100 100 100 100 100 101 100 98 94 90 86 82 78 74 69 64 60 55 51 48 44 42 40 40 39 37 37 37 38 39 41 43 44 44 43 40 37 34 30 27 24 21 18 16 12 10 7 6
100 99 98 99 100 100 100 100 100 100 100 100 100 100 100 100 100 100 100 101 100 96 92 88 84 80 75 71 66 61 57 53 49 47 44 42 41 40 40 39 39 39 40 42 44 45 45 45 44 40 37 34 30 27 24 21 18 16 13 10 8 7 6
99 98 97 99 100 100 100 100 100 100 100 100 100 100 100 100 100 100 101 99 95 90 86 82 78 73 68 64 58 54 50 47 45 44 42 41 41 41 41 41 41 43 44 46 47 47 46 44 40 37 33 30 27 24 21 18 15 13 11 9 8 9 9
98 97 96 98 100 100 100 100 100 100 100 100 100 100 100 100 101 100 97 93 88 84 80 75 71 66 62 57 52 49 46 45 45 45 44 44 44 44 44 44 45 47 48 48 48 46 44 40 36 33 29 26 23 20 17 15 12 11 10 10 10 10 10
97 97 97 98 100 100 100 100 100 100 100 100 100 100 100 101 100 96 92 88 85 81 75 70 65 59 55 51 49 49 49 49 49 49 49 48 47 47 48 49 49 50 50 49 46 43 39 35 32 28 25 21 19 16 13 12 11 11 11 11 10 10 9
96 98 99 99 100 100 100 100 100 100 100 100 100 100 101 101 98 93 91 88 84 78 72 66 60 56 53 52 53 54 55 55 55 54 53 52 51 51 52 52 52 51 49 46 42 38 35 31 27 24 20 17 15 13 12 11 11 11 11 10 10 10 10
95 98 100 100 100 100 100 100 100 100 100 100 100 100 101 101 99 95 93 89 84 79 72 65 61 58 57 57 58 60 61 61 60 57 55 54 54 54 54 53 52 49 45 41 37 34 30 26 22 19 16 14 13 12 12 12 11 11 10 10 11 11 12
94 97 100 101 100 100 100 100 100 100 100 100 100 100 100 101 101 99 95 90 86 81 74 68 64 62 61 63 65 67 68 65 62 59 58 57 57 56 55 53 49 45 41 37 33 29 26 22 18 15 13 13 13 12 12 11 10 10 11 12 13 14 14
93 96 99 100 100 100 100 100 100 100 100 100 100 100 100 100 101 100 97 93 90 85 79 73 68 66 67 70 72 72 70 67 63 61 59 58 58 57 54 49 45 40 36 32 28 25 21 17 15 13 13 13 13 12 11 11 11 12 14 15 15 15 15
94 97 99 100 100 100 100 100 100 100 100 100 100 100 100 100 100 101 101 98 94 89 83 76 72 72 74 76 75 73 70 67 64 62 61 61 59 55 50 44 40 36 32 28 25 21 17 15 14 14 14 13 11 11 11 12 13 14 15 16 15 13 12
94 97 100 100 100 100 100 100 100 100 100 100 100 100 100 100 100 101 101 100 95 89 83 78 77 78 79 77 75 72 69 66 65 64 63 61 57 50 45 39 35 32 28 24 21 17 15 14 14 14 13 12 11 11 13 14 14 12 12 12 11 9 9
98 99 101 101 101 100 100 100 100 100 100 100 100 100 100 100 100 101 102 100 94 86 82 82 83 83 81 79 76 72 69 67 67 66 63 58 51 44 39 35 31 28 24 20 17 15 14 14 14 13 12 12 12 14 14 13 10 8 8 9 8 7 8
100 100 99 99 99 99 99 100 100 100 100 100 100 100 100 100 100 101 101 97 90 85 84 86 85 84 81 79 75 71 70 69 67 64 58 50 44 39 34 31 27 23 20 17 16 15 15 15 13 12 13 14 14 13 11 8 7 7 7 7 7 8 9
101 100 99 98 99 99 100 100 100 100 100 100 100 100 100 100 100 100 98 94 89 86 85 84 83 82 81 77 73 71 71 69 64 57 50 43 39 34 31 27 22 19 18 17 16 16 15 13 12 13 15 16 12 9 7 7 7 8 7 8 9 9 10
101 101 100 100 101 100 100 100 100 100 100 100 100 100 100 100 101 100 99 96 91 86 83 82 82 80 78 76 74 72 69 63 55 49 43 39 35 31 26 23 20 19 19 18 17 16 14 13 14 16 16 13 9 7 7 8 8 9 9 9 10 10 11
101 101 100 101 101 100 100 101 100 100 101 100 100 100 100 100 101 101 99 95 88 83 83 84 82 79 77 77 74 68 62 55 48 44 40 36 32 28 23 20 20 20 20 18 17 15 13 14 18 17 13 9 8 8 9 9 9 11 11 11 12 12 12
100 101 100 100 101 100 100 101 100 100 101 101 101 102 101 100 100 100 97 93 88 86 85 84 82 79 77 74 68 61 55 50 45 42 38 33 29 24 20 21 22 21 20 18 15 14 15 18 19 15 10 9 9 9 10 10 11 12 13 12 13 13 13
100 100 100 100 100 100 100 100 100 100 101 101 102 102 102 100 99 99 97 94 90 88 85 83 81 78 74 69 62 57 52 48 44 39 34 29 25 21 20 22 22 21 19 16 14 15 18 20 17 12 9 10 11 11 11 12 12 13 14 14 14 14 14
100 100 100 100 100 100 100 101 100 100 101 101 101 102 102 100 98 98 98 95 91 88 85 83 81 76 71 65 60 55 50 46 41 35 30 25 22 21 22 23 22 20 17 15 15 19 21 19 13 10 10 12 12 13 13 13 14 15 15 15 16 16 16
100 100 100 100 100 100 100 100 100 100 101 101 101 102 101 99 98 98 98 96 94 91 88 84 79 74 69 63 59 54 49 43 37 31 26 23 23 23 24 23 21 19 17 16 20 23 22 16 10 10 11 12 12 13 14 14 15 15 15 16 16 16 16